,Unnamed: 0,Unnamed: 0.1,rosbagTimestamp,# of samples,Fx,Fy,Fz,Tx,Ty,Tz,x.v,y.v,z.v,emg_RFsgl,emg_RAsgl,Rx.v,Ry.v,Rz.v,w.v,disp_x,disp_y,disp_z,step_size,disp_x_f,disp_y_f,disp_z_f,speed_x,speed_y,speed_z,acc_x,acc_y,acc_z
0,21,21,1583256940088983879,21,23.710901,-30.385309999999997,35.758065,-1.9230669999999999,-4.142526999999999,-0.442032,-108.83610467982815,-105.50998943014065,30.26068107028594,-5.236705256453376,-14.346303859088163,0.0107134306794,0.0224575177365,-0.0500506046636,0.998436687664,-0.002813722812462061,-0.0036008122344099998,0.001930610407811173,0.0099875328,-2.7226128047140628,-2.637171648742969,0.7571139783060156,-231.54359584698707,-224.27728443736743,64.38847738446732,0.0,0.0,0.0
1,22,22,1583256940100825580,22,23.729903999999998,-30.394540999999997,35.757497,-1.9231740000000002,-4.138423,-0.442866,-108.83876469057816,-105.51437964851564,30.262542656562506,-5.236705256453376,-14.346764454145037,0.010586447350299998,0.0224530551114,-0.050143311792699985,0.99843349089,-0.0026600107500058807,-0.0043902183750077475,0.001861586276564964,0.010058854399999996,-1.3630546394417968,-1.3183138154019538,0.3792531147632422,-115.92047609774538,-112.11550931678934,32.253440436483075,0.0,0.0,0.0
2,23,23,1583256940109236260,23,23.709245000000006,-30.405759999999997,35.75751500000002,-1.9221119999999998,-4.136008,-0.4437140000000001,-108.84126204878127,-105.5195899768125,30.26433379267969,-5.236705256453376,-14.345843264031295,0.0104658312397,0.0224820358544,-0.05030090478,0.99842618326,-0.002497358203115141,-0.005210328296854527,0.0017911361171840667,0.009487705599999995,-0.6832372661873031,-0.6591234562044918,0.19036686079822246,-58.105659811692455,-56.0549097882871,16.189679047642795,0.0,0.0,0.0
3,24,24,1583256940119301034,24,23.709421,-30.428313000000003,35.721163000000004,-1.91993,-4.133113,-0.44532,-108.8435630724063,-105.52562364506252,30.26605655992188,-5.236705256453376,-14.348376536844075,0.0103778523253,0.0224852155923,-0.0504108368376,0.998421485541,-0.0023010236250229354,-0.0060336682500121705,0.001722767242188894,0.009989811199999995,-0.3432834530131849,-0.3297874384971678,0.0014771883894535876,-29.194413898229946,-28.046650350937764,0.12562693852217616,0.0,0.0,0.0
4,25,25,1583256940128377989,25,23.688470000000002,-30.413406000000002,35.648055,-1.917299,-4.127064,-0.44695799999999997,-108.84564041595316,-105.53247271746876,30.26771133415782,-5.236705256453376,-14.349528024486249,0.0102845326967,0.0225295860445,-0.0505457265101,0.998414631139,-0.002077343546858401,-0.006849072406254209,0.0016547742359414028,0.010002905599999995,-0.17325426772260713,-0.16539785003725668,0.0015523689602346734,-14.734344918554122,-14.066198791351527,0.13202064227114158,0.0,0.0,0.5437501631714
5,26,26,1583256940139154792,26,23.689193999999997,-30.410592,35.610954,-1.9135790000000001,-4.121981,-0.449401,-108.84748681078129,-105.54014490123436,30.269276502453128,-5.236705256453376,-14.352982487412765,0.0102055881454,0.0226084285303,-0.0506303129056,0.998409373126,-0.001846394828135089,-0.007672183765592422,0.0015651682953077286,0.010043891199999998,-0.00321353499609387,-0.0010494171453110824,0.0016126375049216437,-0.2732938914734345,-0.08924729177358262,0.13714615829351678,0.0,0.0,0.4358976084800796
6,27,27,1583256940149786144,27,23.66972,-30.396142000000008,35.57352,-1.909731,-4.116649,-0.451071,-108.84908551557814,-105.54864581006252,30.27074684169845,-5.236705256453376,-14.352752189884331,0.010096122965700002,0.0226528570118,-0.0507625680442,0.998402763446,-0.0015987047968479828,-0.008500908828153797,0.0014703392453228046,0.010064742399999995,-0.003094362651561511,-0.0016436883093753352,0.0016582346742190167,-0.2631589236473956,-0.13978686243796987,0.14102395263918266,0.8619245785413927,-4.298119036219002,0.3297855814076687
7,28,28,1583256940159738248,28,23.670267000000006,-30.392506000000008,35.572156,-1.906016,-4.110112,-0.453568,-108.85041667389065,-105.55792468907812,30.272111392051567,-5.236705256453376,-14.355055165168677,0.0100602985567,0.0227324025886,-0.0508651995938,0.99839609361,-0.0013311583125101836,-0.009278879015610642,0.0013645503531165561,0.010064089599999996,-0.002960373380467729,-0.002269692262498069,0.0016884646640624725,-0.2517638557992411,-0.193025136374498,0.14359485090964266,0.9690893174063264,-4.527629254739095,0.21864108956970116
8,29,29,1583256940169685311,29,23.674022,-30.365862999999997,35.53270999999999,-1.899517,-4.105003,-0.45445,-108.85146224739063,-105.56794590795313,30.27338595737345,-5.236705256453376,-14.354824867640238,0.0100274294545,0.0227605260977,-0.0509816396066,0.998389844466,-0.0010455734999794686,-0.010021218875010618,0.0012745653218821928,0.010086105599999996,-0.002811771575778721,-0.002922515839843243,0.0017045965553124987,-0.23912607045294826,-0.2485442753025433,0.1449667816158291,1.0747757659687944,-4.72160457170778,0.11667533790089255
9,30,30,1583256940178682801,30,23.681464,-30.365395999999997,35.56586200000001,-1.889672,-4.1035129999999995,-0.45695600000000003,-108.8521792708125,-105.57867211335936,30.274603899084386,-5.236705256453376,-14.356667247867716,0.00999511271954,0.0227109817256,-0.0511124472915,0.998384608637,-0.0007170234218705218,-0.010726205406228928,0.0012179417109372535,0.010007603199999996,-0.002648053425778585,-0.003598090502342188,0.0017071541229686461,-0.2252027211280599,-0.3059982718264996,0.14518428900825042,1.1841060775650587,-4.886153818091022,0.01849783548998776
10,31,31,1583256940188949009,31,23.708088999999998,-30.35325200000001,35.563324,-1.882107,-4.103722,-0.458581,-108.85255696423435,-105.5900481575,30.27575866204845,-5.236705256453376,-14.358739925623624,0.0100391046344,0.0228085320901,-0.0512160454751,0.998376634306,-0.0003776934218677752,-0.011376044140632756,0.0011547629640631385,0.010038950399999995,-0.002481116824215945,-0.0042820136124987595,0.0016982788079689115,-0.21100565978413194,-0.3641622589841,0.14442949113697212,1.2073838146730425,-4.946534708112188,-0.06419150492160555
11,32,32,1583256940199009383,32,23.73619,-30.341566,35.596458,-1.8733240000000002,-4.104648,-0.46024,-108.8525632985,-105.6020336176875,30.27685299045157,-5.236705256453376,-14.358739925623624,0.0100463400996,0.0229063648332,-0.0513152053905,0.998369229893,-6.3342656346776485e-06,-0.01198546018750335,0.0010943284031199596,0.010033254399999995,-0.0022974650828103908,-0.004978898542186983,0.0016770496877345665,-0.1953870655738292,-0.4234285792747418,0.1426240684829622,1.3282775498840098,-5.0402822204296704,-0.15354149977156714
12,33,33,1583256940207829042,33,23.722518,-30.331715000000013,35.63120800000001,-1.865839,-4.107272,-0.461892,-108.85219166971876,-105.61457137610935,30.27788062657344,-5.236705256453376,-14.358279330566758,0.00998051010274,0.0229210682368,-0.051428843764699986,0.998363705309,0.00037162878123808696,-0.012537758421856893,0.0010276361218721775,0.009951155199999995,-0.002097321693748455,-0.005682070407810613,0.0016459410119532337,-0.1783659453072366,-0.4832295696994633,0.139978442692921,1.4475548579831163,-5.0857530436118905,-0.22499626374746168
13,34,34,1583256940218394832,34,23.747208999999998,-30.320241,35.593961,-1.8607369999999999,-4.1089459999999995,-0.463445,-108.85143288692188,-105.62761923774998,30.278825775109386,-5.236705256453376,-14.360352008322664,0.0100090462701,0.022922831527900003,-0.0515296343748,0.998358182001,0.0007587827968791316,-0.01304786164062932,0.0009451485359441848,0.009991129599999996,-0.0018806763343725665,-0.006387272025779112,0.001604198905156906,-0.15994142109777074,-0.5432031796592857,0.13642850070737095,1.5669068256209968,-5.100433407930127,-0.3019034990797301
14,35,35,1583256940228071107,35,23.731969,-30.334172000000002,35.59282100000001,-1.8547630000000002,-4.11086,-0.464269,-108.85028633635936,-105.64112366996874,30.27970330390626,-5.236705256453376,-14.361733793493276,0.0100080161372,0.0228883034113,-0.0515513792445,0.99835786193,0.0011465505625238848,-0.013504432218752528,0.000877528796873861,0.009996531199999995,-0.0016483590398401304,-0.007088523231248445,0.0015529131272659313,-0.14018408297743776,-0.6028408282537785,0.1320669207544208,1.6802554901768698,-5.071861698262349,-0.37092894888748973
15,36,36,1583256940238548784,36,23.713777,-30.34719,35.520335,-1.8512240000000002,-4.11134,-0.465027,-108.84877337967188,-105.65500314620311,30.28049154000313,-5.236705256453376,-14.361503495964836,0.0100479206657,0.022907890492700003,-0.051657436084400016,0.998351529843,0.0015129566874776401,-0.01387947623437924,0.0007882360968700652,0.010012953599999996,-0.001402333982809978,-0.0077793781375000036,0.0014923678788278491,-0.11926097328127065,-0.6615943274384776,0.1269178725641935,1.7793981013250568,-4.9966695397390435,-0.43789889296427537
16,37,37,1583256940248979434,37,23.694772000000004,-30.35968900000001,35.520289000000005,-1.8489400000000002,-4.111095,-0.465854,-108.846912499,-105.66921990971872,30.281164213757826,-5.236705256453376,-14.361733793493269,0.0101378731564,0.0229446954838,-0.0517005367716,0.998347544182,0.0018608806718845015,-0.014216763515605638,0.0006726737546962624,0.010017919999999996,-0.0011438284140595555,-0.008455671744529525,0.001423775833750618,-0.097276463096309,-0.7191094663332975,0.12108448753927115,1.869664512099191,-4.891353648336397,-0.4960980651717522
17,38,38,1583256940259597011,38,23.693295000000006,-30.359233000000007,35.48461599999998,-1.8501580000000002,-4.110378,-0.465821,-108.84469619415623,-105.68372146674999,30.28169398061564,-5.236705256453376,-14.362424686078574,0.0102014486227,0.0229716467723,-0.0517281984402,0.998344843918,0.002216304843770445,-0.014501557031266543,0.0005297668578130299,0.010061158399999996,-0.0008728485070285785,-0.0091120844312492,0.0013477131133596387,-0.07423107744044295,-0.7749338397364843,0.11461576170402304,1.9598862729216493,-4.747563124399645,-0.5501303886650024
18,39,39,1583256940269053399,39,23.691727999999998,-30.383015000000007,35.44872700000001,-1.851668,-4.109667,-0.464992,-108.84212771545313,-105.69844680345312,30.282087111778132,-5.236705256453376,-14.361964091021704,0.0102537774552,0.023075255005,-0.051774523001300005,0.998339517109,0.002568478703096844,-0.014725336703136803,0.0003931311624931766,0.0100459008,-0.0005896972742171157,-0.009744204794532151,0.0012662084767969262,-0.05015058589931876,-0.8286922815058088,0.10768423012698182,2.0479164688937197,-4.57186673508924,-0.5894895312679673
19,40,40,1583256940278278235,40,23.714321,-30.371125999999997,35.483418,-1.8502669999999999,-4.110618,-0.464218,-108.83920952935937,-105.71333797120312,30.282376712809377,-5.236705256453376,-14.363576173720743,0.0103385635919,0.0231156405782,-0.0517934543585,0.998336726435,0.002918186093765485,-0.014891167749993885,0.00028960103124475717,0.0099877376,-0.00029592861718370496,-0.0103474676648446,0.0011813126465623825,-0.02516713945446156,-0.8799965484920169,0.1004642957423031,2.1247079336719685,-4.363152351194532,-0.6140166410417599
20,41,41,1583256940288494073,41,23.715426,-30.397772000000003,35.48410300000002,-1.850582,-4.114977,-0.4633600000000001,-108.83596286612499,-105.72834947821873,30.282538141937515,-5.236705256453376,-14.361964091021704,0.0103303035469,0.0231945219093,-0.0518056469696,0.998334349767,0.003246663234378389,-0.015011507015614713,0.00016142912813776888,0.0099755136,7.090685158317456e-06,-0.010918002403904836,0.0010928535825787122,0.0006030246885392554,-0.9285174636985049,0.09294132746544274,2.191614048426604,-4.1264432317532105,-0.6397880459722581
21,42,42,1583256940298631214,42,23.73985,-30.387985000000008,35.482992,-1.847954,-4.119552,-0.46251000000000003,-108.83239871587502,-105.74344601043751,30.28254336155782,-5.236705256453376,-14.362885281135444,0.0103773533365,0.0232626848541,-0.0517581813648,0.998334737797,0.0035641502499714757,-0.015096532218763059,5.21962030575196e-06,0.0098902784,0.0003182987351571853,-0.0114533180960926,0.0010000352497657515,0.027069597837869084,-0.9740431881305148,0.08504762678834908,2.250839893991736,-3.871718343598132,-0.6713168454028546
22,43,43,1583256940307937539,43,23.741046,-30.390391,35.483893,-1.847977,-4.1239040000000005,-0.46244799999999997,-108.82853220851564,-105.7586005273906,30.28236330380157,-5.236705256453376,-14.361503495964836,0.010422995650700002,0.0232642541459,-0.051728123365900006,0.998335783639,0.003866507359376215,-0.015154516953103325,-0.00018005775624985176,0.009935065600000001,0.0006364920132817531,-0.011950527528905042,0.0009014755560940557,0.054130227121525334,-1.0163281798719404,0.0766656542071547,2.301361177531849,-3.5961114342875153,-0.7128417483309484
23,44,44,1583256940318141790,44,23.761791000000002,-30.404234000000002,35.44792300000001,-1.849327,-4.1277800000000004,-0.46075,-108.82434788868748,-105.77377440373436,30.28198432843439,-5.236705256453376,-14.361733793493269,0.0104526561779,0.0233377530535,-0.0517377304974,0.998333260241,0.004184319828155481,-0.015173876343766326,-0.0003789753671803453,0.0099420288,0.000960759185940674,-0.01240753793359275,0.0007963884256255938,0.08170740851235027,-1.0551944601809362,0.06772855818535567,2.345291159837481,-3.3053683889094083,-0.7600520153781016
24,45,45,1583256940328900299,45,23.759221000000004,-30.405207,35.449917,-1.8530389999999999,-4.1299730000000014,-0.46069099999999996,-108.81970769040623,-105.78889422396874,30.281162529043762,-5.236705256453376,-14.35920052068049,0.010473265803299998,0.0233825067449,-0.0517063716309,0.998333621699,0.004640198281251172,-0.015119820234374968,-0.0008217993906285415,0.010026112,0.0012966362773461527,-0.012821075324998788,0.0006725597442970965,0.11027195113552336,-1.0903635942045284,0.05719759392405956,2.429260929516799,-2.9909459547636197,-0.8956019484572636
25,46,46,1583256940338945233,46,23.756093999999997,-30.381740999999998,35.414921,-1.8576560000000002,-4.131434,-0.45901899999999995,-108.8145583948906,-105.80405981892186,30.28026623470001,-5.236705256453376,-14.35920052068049,0.0105680552289,0.0234006698062,-0.0517342758299,0.998330751588,0.005149295515636254,-0.015165594953117534,-0.0008962943437502703,0.0099895296,0.0016464207945347195,-0.013195745884375044,0.0005494866123441966,0.140019245624557,-1.1222273129183216,0.046730885079091074,2.5298476231303435,-2.709838136100089,-0.8901373704153983
26,47,47,1583256940348585062,47,23.755812999999996,-30.38369,35.380149,-1.8588959999999999,-4.1350690000000005,-0.458924,-108.80915599559374,-105.819204007875,30.279117725815635,-5.236705256453376,-14.357818735509882,0.010549815853799998,0.0234366990961,-0.0517318318664,0.998330225974,0.005402399296855265,-0.015144188953144068,-0.0011485088843770086,0.0099399424,0.0019964759992198823,-0.013527909890624556,0.000418544205859206,0.1697895606313095,-1.150476077592015,0.035594936701159034,2.531805394518789,-2.4024057109616543,-0.9470525981984445
27,48,48,1583256940358652659,48,23.757086,-30.361352,35.307358,-1.858575,-4.137962,-0.457236,-108.80338989615623,-105.83427894470312,30.277505217653136,-5.236705256453376,-14.359891413265796,0.0106118458496,0.023468008655,-0.0517586304537,0.998327444014,0.0057660994375083865,-0.015074936828114003,-0.0016125081624984714,0.0099457152,0.0023513388867208106,-0.013817712781249724,0.00026969128007845453,0.1999687432394069,-1.175122256904042,0.022935794854788562,2.566577387979189,-2.0960251754915333,-1.0765920215943166
28,49,49,1583256940369772887,49,23.756628,-30.362479,35.308322999999994,-1.85982,-4.140143,-0.457196,-108.797409215,-105.84935462573436,30.27568815926095,-5.236705256453376,-14.361042900907965,0.0106113330994,0.023463297878400003,-0.0518287671765,0.998323921458,0.005980681156231071,-0.015075681031248678,-0.0018170583921843786,0.0100043776,0.0027026516195313376,-0.014070435889061627,0.000115110094375126,0.2298460042590193,-1.1966149998438664,0.009789495268572309,2.5409005785039005,-1.8278423491894695,-1.1180221708367208
29,50,50,1583256940379560749,50,23.757455,-30.362736,35.306792,-1.8598,-4.140135,-0.45482,-108.79122276225,-105.86445353571872,30.27368044028595,-5.236705256453376,-14.364036768777616,0.010662576538,0.0234460668376,-0.0518915189297,0.998320520512,0.006186452750000626,-0.015098909984359919,-0.0020077189750011826,0.0100438912,0.003047825428124895,-0.014289071117968176,-4.617293992179583e-05,0.25920118274623194,-1.2152087517692962,-0.003926760544800389,2.4965002632363538,-1.5812987339391442,-1.1664938867129873
30,51,51,1583256940389249225,51,23.759109000000002,-30.364015000000002,35.306728,-1.8585770000000001,-4.142306,-0.45479899999999995,-108.78485411992187,-105.87960437462499,30.271495442354695,-5.236705256453376,-14.36426706630605,0.01068236761,0.0234315910923,-0.0519581612306,0.998317182584,0.006368642328126839,-0.015150838906265562,-0.0021849979312555945,0.0100150144,0.003385142215624625,-0.014477810856249818,-0.00021316098468773247,0.287888163789592,-1.231260052786203,-0.01812819685686656,2.4396736595351203,-1.3650769397109772,-1.2077558822151788
31,52,52,1583256940398203929,52,23.757633000000002,-30.363558,35.271055000000004,-1.859795,-4.141589,-0.454766,-108.77831519796877,-105.89482745690624,30.269164321517195,-5.236705256453376,-14.366109446533528,0.0107066686688,0.0234247417387,-0.0520271354585,0.998313490792,0.006538921953108456,-0.015223082281252687,-0.002331120837499867,0.0099597312,0.003712405026561783,-0.014639691960937284,-0.0003844334467187238,0.3157201081263631,-1.2450271712740466,-0.032693999845656664,2.366957380054624,-1.1708194839925568,-1.2387433110516988
32,53,53,1583256940409140326,53,23.757542,-30.387797999999997,35.270839,-1.8600869999999998,-4.141595,-0.45397,-108.77162686870312,-105.91016689596874,30.266716567676568,-5.236705256453376,-14.367491231704134,0.0106977173426,0.0233418325368,-0.0521384173238,0.99830972305,0.006688329265642778,-0.015339439062501016,-0.0024477538406273425,0.0100655616,0.004028240050782017,-0.01477977599296949,-0.0005582029448436999,0.3425801805816727,-1.2569405658049622,-0.04747216234262209,2.284304896474678,-1.01317021783482,-1.256803346635928
33,54,54,1583256940418199343,54,23.734771000000002,-30.398865,35.271886,-1.861493,-4.13919,-0.454798,-108.7648039059219,-105.92564211456249,30.26418117092032,-5.236705256453376,-14.372097182272825,0.0106461524815,0.023327956523,-0.0522124317442,0.998306730346,0.006822962781228625,-0.015475218593749672,-0.0025353967562473656,0.0099902208,0.004331449049999492,-0.014901143840625509,-0.0007322302094532774,0.368366477425066,-1.2672622493795882,-0.06227224649463524,2.1929860479460093,-0.8778037501056608,-1.2586676656562006
34,55,55,1583256940438295010,55,23.719162000000004,-30.411413,35.271313,-1.8542939999999999,-4.1389309999999995,-0.45803900000000003,-108.75787401593752,-105.94128303214063,30.261575270175012,-5.236705256453376,-14.373939562500306,0.0104510305772,0.023178152703,-0.0523957502631,0.998302676823,0.006929889984377269,-0.015640917578139124,-0.0026059007453085314,0.010511193600000001,0.004620616021092161,-0.015007968108594838,-0.0009064016865623967,0.3929585751963868,-1.2763470796156446,-0.07708459514516698,2.0914258309272618,-0.7726160168180286,-1.2597106953824015
35,56,56,1583256940448085444,56,23.687952000000003,-30.364712000000008,35.303951,-1.842675,-4.139107,-0.459775,-108.75072468045315,-105.95722253228128,30.25897629808907,-5.236705256453376,-14.375551645199346,0.0103336945782,0.023103454858,-0.0524961588269,0.998300354822,0.007149335484371022,-0.0159395001406466,-0.002598972085941398,0.010476838399999999,0.00490243496093683,-0.015110969303908206,-0.00107576209570297,0.41692576237645057,-1.285106778056092,-0.09148778830529156,2.03828054154494,-0.7449653038891831,-1.2249142185035111
36,57,57,1583256940468141395,57,23.679320999999998,-30.306383999999998,35.30037100000001,-1.8284220000000002,-4.140968,-0.46304399999999996,-108.743498932625,-105.97338044295314,30.25635420730157,-5.236705256453376,-14.376933430369954,0.0102573822053,0.0230061006304,-0.0526254184019,0.998296584579,0.007225747828144335,-0.016157910671864784,-0.002622090787500753,0.0109580928,0.005170678318749821,-0.015208026661721162,-0.0012405003228128208,0.4397384192193736,-1.2933609850415688,-0.10549788970951178,1.940093937370764,-0.7019759706461002,-1.191483875965521
37,58,58,1583256940478623094,58,23.671909,-30.166239,35.434629,-1.788591,-4.145356,-0.472963,-108.73620159626564,-105.98975254471875,30.253749910251564,-5.236705256453376,-14.377624322955256,0.0101132300198,0.0227411475958,-0.0530106682963,0.998283743147,0.007297336359357588,-0.016372101765611546,-0.002604297050005755,0.010951296,0.005424729894529179,-0.015301553898438413,-0.00139720351820376,0.4613441412246088,-1.3013149741881886,-0.11882465482231368,1.8374506118904144,-0.6764440559257863,-1.1333697945897971
38,59,59,1583256940488529729,59,23.668786,-30.108112999999996,35.429492999999994,-1.7669549999999998,-4.1471919999999995,-0.478666,-108.72871930773441,-106.0064581596719,30.251140370290624,-5.236705256453376,-14.378545513068993,0.00996938945998,0.022392581039,-0.0527322909309,0.998307812792,0.007482288531235781,-0.016705614953139047,-0.0026095399609396,0.010973811200000001,0.005670420385936126,-0.015400567810938525,-0.0015473370743753988,0.4822387979114792,-1.3097355756411238,-0.1315927074051442,1.7769783257059144,-0.716126926396251,-1.0858542947690557
39,60,60,1583256940508246468,60,23.663202000000002,-29.9918,35.527334,-1.7237200000000001,-4.150856,-0.49017,-108.72093742043751,-106.02357783484376,30.248458927637497,-5.236705256453376,-14.38315146363768,0.00971000122643,0.0219520885768,-0.0534261772276,0.998283259035,0.007781887296900436,-0.01711967517186963,-0.0026814426531274194,0.011498419199999999,0.0059136054460928724,-0.015511993182032313,-0.0016958892585940074,0.5029203811272288,-1.319211704985322,-0.14422627279694186,1.758857571407873,-0.8058939042921515,-1.0744168815044182
40,61,61,1583256940518774610,61,23.612985000000002,-29.979328,35.559312,-1.70764,-4.146438,-0.494393,-108.71300806875,-106.04102412348438,30.24564232784688,-5.236705256453376,-14.386145331507327,0.00947675203858,0.0217498261878,-0.0538146117753,0.998269063826,0.007929351687508301,-0.017446288640613258,-0.002816599790619989,0.0115140224,0.006147739868749369,-0.01563373226328224,-0.0018447907045318962,0.5228322562346908,-1.329564959983209,-0.1568895410220743,1.6933980309117282,-0.8804887300834093,-1.0769429479451809
41,62,62,1583256940528310844,62,23.555588999999998,-29.98736600000001,35.521387000000004,-1.696753,-4.13626,-0.500173,-108.7050728744844,-106.05865651354686,30.242731497757806,-5.236705256453376,-14.38867860432011,0.009205481333,0.0215718986285,-0.0542653630392,0.998251061946,0.007935194265598966,-0.017632390062487957,-0.0029108300890712253,0.011483980800000002,0.006366292069530743,-0.015760525155468486,-0.0019905931900007444,0.5414189470640196,-1.3403480144571358,-0.1692892593038778,1.5806982256410118,-0.9170408670612252,-1.0545294407957269
42,63,63,1583256940538563783,63,23.494972,-30.017908,35.447636,-1.688598,-4.123202,-0.505145,-108.69714177276563,-106.07645831168749,30.239694530203124,-5.236705256453376,-14.390290687019153,0.008936793337,0.0213436200502,-0.054741193251199985,0.998232430534,0.007931101718767762,-0.01780179814062421,-0.0030369675546815245,0.0115313152,0.006569521787500321,-0.01589288921484453,-0.002133438679922328,0.5587025430274887,-1.3516048667777332,-0.1814375009964536,1.46987700624158,-0.9573348291452528,-1.0331427075664172
43,64,64,1583256940548709588,64,23.430588999999998,-30.047016000000003,35.374979,-1.684134,-4.107984,-0.51012,-108.68938483834374,-106.09444123904686,30.236529932490626,-5.236705256453376,-14.392363364775065,0.00852754370092,0.0211151800896,-0.0552296932754,0.998213960606,0.007756934421891516,-0.017982927359369686,-0.0031645977124981073,0.0115283968,0.006748152517187122,-0.0160333417656247,-0.0022727197971882163,0.5738941271590402,-1.363549601848843,-0.19328261193896112,1.2919626361637158,-1.0158355624478623,-1.007363065392889